Weather reports worldwide

Advertisment
Larissa, Greece (16648): temperature & dewpoint: 10.01.2019 19:00:00 - 16.01.2019 19:00:00 (EET)Larissa, Greece (16648): wind speed: 10.01.2019 19:00:00 - 16.01.2019 19:00:00 (EET)Larissa, Greece (16648): wind direction: 10.01.2019 19:00:00 - 16.01.2019 19:00:00 (EET)Larissa, Greece (16648): reduced air pressure: 10.01.2019 19:00:00 - 16.01.2019 19:00:00 (EET)Larissa, Greece (16648): visibility: 10.01.2019 19:00:00 - 16.01.2019 19:00:00 (EET)
Date & Time tt [°C] td [°C] ff [km/h] ff [kn] dd ppp [hPa] vv [km]
16.01.2019 19:00:00 1,0 -4,0 0 0 N - 10
16.01.2019 18:00:00 4,0 -3,0 8 4 S - 10
16.01.2019 17:00:00 8,0 -2,9 8 4 SW 1018,6 10
16.01.2019 16:00:00 9,0 -3,0 13 7 SSW - 10
16.01.2019 15:00:00 9,0 -4,0 13 7 S - 10
16.01.2019 14:00:00 7,6 -4,8 15 8 SSW 1019,0 10
16.01.2019 13:00:00 7,0 -6,0 11 6 SW - 10
16.01.2019 12:00:00 7,0 -7,0 8 4 SSW - 10
16.01.2019 11:00:00 4,6 -4,8 11 6 SSW 1021,6 10
16.01.2019 10:00:00 3,0 -6,0 0 0 N - 10
16.01.2019 09:00:00 0,0 -7,0 9 5 SW - 10
16.01.2019 08:00:00 -0,2 -8,9 15 8 W 1021,2 10
16.01.2019 07:00:00 -1,0 -11,0 0 0 N - 10
16.01.2019 06:00:00 1,0 -10,0 13 7 WSW - 10
16.01.2019 05:00:00 0,4 -10,1 11 6 W 1020,1 10
16.01.2019 04:00:00 0,0 -10,0 9 5 W - 10
16.01.2019 03:00:00 1,0 -10,0 11 6 W - 10
16.01.2019 02:00:00 1,2 -11,3 0 0 N 1019,2 10
16.01.2019 01:00:00 1,0 -11,0 18 10 N - 10
16.01.2019 00:00:00 1,0 -11,0 22 12 N - 10
15.01.2019 23:00:00 1,4 -10,6 26 14 NNW 1017,0 10
15.01.2019 22:00:00 2,0 -11,0 24 13 NW - 10
15.01.2019 21:00:00 2,0 -10,0 26 14 NW - 10
15.01.2019 20:00:00 2,2 -11,0 21 11 WNW 1013,9 10
15.01.2019 19:00:00 3,0 -11,0 16 9 WNW - 10
15.01.2019 18:00:00 3,0 -11,0 8 4 WNW - 10
15.01.2019 17:00:00 5,2 -11,0 18 10 WNW 1009,3 10
15.01.2019 16:00:00 8,0 -16,0 28 15 NNE - 10
15.01.2019 15:00:00 7,0 -12,0 34 18 NNE - 10
15.01.2019 14:00:00 8,6 -9,3 31 17 NNE 1006,1 10
15.01.2019 13:00:00 9,0 -8,0 24 13 NNE - 10
15.01.2019 12:00:00 8,0 -7,0 26 14 NNE - 10
15.01.2019 11:00:00 7,6 -5,0 18 10 NW 1006,5 10
15.01.2019 10:00:00 5,0 -4,0 0 0 N - 10
15.01.2019 09:00:00 3,0 -2,0 8 4 WSW - 10
15.01.2019 08:00:00 0,6 -0,6 0 0 N 1005,2 10
15.01.2019 07:00:00 1,0 0,0 11 6 SSW - 10
15.01.2019 06:00:00 1,0 0,0 11 6 S - 10
15.01.2019 05:00:00 0,2 -0,8 0 0 N 1004,0 10
15.01.2019 04:00:00 1,0 0,0 0 0 N - 10
15.01.2019 03:00:00 1,0 0,0 0 0 N - 10
15.01.2019 02:00:00 0,6 -0,6 0 0 N 1003,5 10
15.01.2019 01:00:00 1,0 0,0 0 0 N - 10
15.01.2019 00:00:00 1,0 -1,0 0 0 N - 10
14.01.2019 23:00:00 0,0 -1,2 0 0 N 1002,9 10
14.01.2019 22:00:00 1,0 -1,0 0 0 N - 10
14.01.2019 21:00:00 0,0 -2,0 0 0 N - 10
14.01.2019 20:00:00 0,4 -1,7 0 0 N 1002,5 10
14.01.2019 19:00:00 1,0 -1,0 0 0 N - 10
14.01.2019 18:00:00 3,0 -1,0 0 0 N - 10
14.01.2019 17:00:00 3,6 -0,4 0 0 N 1002,2 10
14.01.2019 16:00:00 4,0 -1,0 0 0 N - 10
14.01.2019 15:00:00 4,0 -1,0 0 0 N - 10
14.01.2019 14:00:00 3,4 -0,6 8 4 SSW 1002,9 10
14.01.2019 13:00:00 3,0 -1,0 0 0 N - 10
14.01.2019 12:00:00 2,0 -2,0 0 0 N - 10
14.01.2019 11:00:00 1,0 -2,6 0 0 N 1005,2 10
14.01.2019 10:00:00 0,0 -3,0 0 0 N - 10
14.01.2019 09:00:00 -3,0 -4,0 0 0 N - 10
14.01.2019 08:00:00 -4,6 -5,4 0 0 N 1005,3 10
14.01.2019 07:00:00 -5,0 -6,0 0 0 N - 10
14.01.2019 06:00:00 -4,0 -5,0 0 0 N - 10
14.01.2019 05:00:00 -3,0 -4,4 0 0 N 1006,6 10
14.01.2019 04:00:00 -3,0 -4,0 0 0 N - 10
14.01.2019 03:00:00 -3,0 -4,0 0 0 N - 10
14.01.2019 02:00:00 -2,2 -3,0 0 0 N 1008,3 10
14.01.2019 01:00:00 -1,0 -3,0 0 0 N - 10
14.01.2019 00:00:00 -1,0 -3,0 0 0 N - 10
13.01.2019 23:00:00 -1,4 -3,0 0 0 N 1009,7 10
13.01.2019 22:00:00 -1,0 -3,0 0 0 N - 10
13.01.2019 21:00:00 -1,0 -3,0 0 0 N - 10
13.01.2019 20:00:00 -1,0 -2,4 8 4 S 1010,2 10
13.01.2019 19:00:00 -1,0 -2,0 0 0 N - 10
13.01.2019 18:00:00 1,0 -2,0 0 0 N - 10
13.01.2019 17:00:00 3,0 -2,2 11 6 SSW 1009,7 10
13.01.2019 16:00:00 4,0 -2,0 11 6 SSW - 10
13.01.2019 15:00:00 5,0 -2,0 11 6 S - 10
13.01.2019 14:00:00 5,2 -2,4 0 0 N 1011,2 10
13.01.2019 13:00:00 5,0 -2,0 0 0 N - 10
13.01.2019 12:00:00 4,0 -3,0 0 0 N - 10
13.01.2019 11:00:00 2,0 -2,5 0 0 N 1013,8 10
13.01.2019 10:00:00 1,0 -2,0 0 0 N - 10
13.01.2019 09:00:00 -2,0 -5,0 0 0 N - 10
13.01.2019 08:00:00 -3,0 -3,6 0 0 N 1013,6 10
13.01.2019 07:00:00 -3,0 -3,0 0 0 N - 10
13.01.2019 06:00:00 -2,0 -4,0 0 0 N - 10
13.01.2019 05:00:00 -1,0 -5,0 0 0 N 1013,1 10
13.01.2019 04:00:00 0,0 -4,0 0 0 N - 10
13.01.2019 03:00:00 0,0 -3,0 8 4 W - 10
13.01.2019 02:00:00 0,0 -3,6 0 0 N 1013,5 10
13.01.2019 01:00:00 1,0 -2,0 0 0 N - 10
13.01.2019 00:00:00 2,0 -1,0 0 0 N - 10
12.01.2019 23:00:00 1,6 0,0 0 0 N 1014,1 10
12.01.2019 22:00:00 2,0 0,0 0 0 N - 10
12.01.2019 21:00:00 3,0 -1,0 0 0 N - 10
12.01.2019 20:00:00 3,2 -2,4 0 0 N 1013,2 10
12.01.2019 19:00:00 3,0 0,0 0 0 N - 10
12.01.2019 18:00:00 3,0 0,0 8 4 SW - 10
12.01.2019 17:00:00 3,6 0,6 0 0 N 1012,4 10
12.01.2019 16:00:00 4,0 0,0 0 0 N - 10
12.01.2019 15:00:00 4,0 1,0 15 8 WSW - 10
12.01.2019 14:00:00 5,8 -1,7 11 6 NW 1012,3 10
12.01.2019 13:00:00 5,0 -2,0 0 0 N - 10
12.01.2019 12:00:00 4,0 -1,0 0 0 N - 10
12.01.2019 11:00:00 4,2 -2,1 0 0 N 1014,6 10
12.01.2019 10:00:00 3,0 -1,0 0 0 N - 10
12.01.2019 09:00:00 3,0 -2,0 0 0 N - 10
12.01.2019 08:00:00 2,2 -1,8 0 0 N 1014,4 10
12.01.2019 07:00:00 - - - - - - -
12.01.2019 06:00:00 2,0 1,0 8 4 SW - 10
12.01.2019 05:00:00 2,6 1,7 8 4 SE 1014,9 10
12.01.2019 04:00:00 3,0 1,0 8 4 NW - 10
12.01.2019 03:00:00 3,0 2,0 11 6 W - 10
12.01.2019 02:00:00 3,2 1,5 8 4 WNW 1015,7 10
12.01.2019 01:00:00 4,0 2,0 0 0 N - 10
12.01.2019 00:00:00 4,0 1,0 0 0 N - 10
11.01.2019 23:00:00 4,0 0,9 0 0 N 1015,2 10
11.01.2019 22:00:00 4,0 1,0 8 4 NW - 10
11.01.2019 21:00:00 4,0 2,0 0 0 N - 10
11.01.2019 20:00:00 2,8 1,7 0 0 N 1015,7 10
11.01.2019 19:00:00 3,0 2,0 0 0 N - 10
11.01.2019 18:00:00 4,0 2,0 0 0 N - 10
11.01.2019 17:00:00 4,8 2,5 9 5 SSW 1014,8 10
11.01.2019 16:00:00 7,0 4,0 8 4 SSW - 10
11.01.2019 15:00:00 9,0 4,0 0 0 N - 10
11.01.2019 14:00:00 8,0 3,6 0 0 N 1014,2 10
11.01.2019 13:00:00 8,0 3,0 0 0 N - 10
11.01.2019 12:00:00 6,0 3,0 0 0 N - 8
11.01.2019 11:00:00 4,0 3,8 0 0 N 1014,8 1,5
11.01.2019 10:00:00 0,0 0,0 0 0 N - 0,8
11.01.2019 09:00:00 0,0 -1,0 0 0 N - 0,1
11.01.2019 08:00:00 -0,4 -0,6 0 0 N 1013,5 0,1
11.01.2019 07:00:00 -1,0 -1,0 0 0 N - 0,5
11.01.2019 06:00:00 -1,0 -1,0 0 0 N - 1,0
11.01.2019 05:00:00 -0,6 -0,9 0 0 N 1011,8 2,0
11.01.2019 04:00:00 0,0 -1,0 0 0 N - 2,0
11.01.2019 03:00:00 1,0 0,0 0 0 N - 2,0
11.01.2019 02:00:00 0,2 -0,1 0 0 N 1010,5 2,0
11.01.2019 01:00:00 2,0 1,0 0 0 N - 2,0
11.01.2019 00:00:00 2,0 2,0 0 0 N - 0,7
10.01.2019 23:00:00 2,2 1,9 8 4 SW 1009,2 1,0
10.01.2019 22:00:00 2,0 1,0 0 0 N - 1,0
10.01.2019 21:00:00 3,0 2,0 0 0 N - 1,0
10.01.2019 20:00:00 2,2 1,7 0 0 N 1006,7 1,0
10.01.2019 19:00:00 2,0 1,0 9 5 W - 1,4

tt = temperature
td = dewpoint
ff = wind speed
dd = wind direction
ppp = reduced air pressure
vv = visibility

Next stations